THORAD AGENA D DEB, 4679

Orbit data source: Space-Track

THORAD AGENA D DEB, 4679 is space debris in SSO originally from a launch on Wed, 08 Apr 1970 UTC launched from the Air Force Western Test Range (AFWTR). Debris objects in space refer to the collection of defunct objects orbiting the Earth. Examples of debris include non-operational satellites, rocket bodies, and fragments generated from explosions, collisions, or faulty payload assembly.

Loading next visibility...
Identifier
4679, 1970-025BC
Orbit
SSO
Country
Flag of USUS
Related business
Manufacturer
Unknown
Mission
Spacecraft
Bus & Motor
Unknown
Mass
Unknown
Launch date (UTC)
1970-04-08 (56 years ago)
Launch vehicle
Unknown
Launch site
Air Force Western Test Range (AFWTR)
Object type
Payload
Rocket body
Debris
Shape & HBR
Unknown shape, 0.1 m
Radar Cross Section
Small (<0.1 m²)

Expand to show TLE details & history
Last TLE update: 23 hours ago

TLE from 23 hours ago
0 THORAD AGENA D DEB
1 04679U 70025BC  25352.39569280  .00000426  00000-0  55442-3 0  9994
2 04679 100.1752 158.3751 0017392 294.5971  94.9083 13.68499204765493
Epoch: 2025-12-18T09:29Z
TLE epoch observation values (Epoch: 2025-12-18T09:29:47.857Z)
Latitude
29.23928°
Longitude
-77.06242°
Altitude
1,009.61 km
Speed
7.349 km/s
True Right ascension
10h 10m 33s
True Declination
29° 05' 53"
Sunlit
Object was in full shadow at epoch
Visualization orbit readout
Latitude
Unknown
Longitude
Unknown
Altitude
Unknown
Speed
Unknown
Apparent Right ascension
Unknown
Apparent Declination
Unknown
Sunlit
N/A
Visualization observer readout
Local Sidereal Time
07:27:04
Azimuth
Unknown
Elevation
Unknown
Doppler factor
Unknown
Orbital elements
Apogee altitude
1,015.102 km
Perigee altitude
989.43 km
Semi-major axis
7,380.403 km
Eccentricity
0.00174
Inclination
100.1752°
RAAN
158.3751°
Arg. of periapsis
294.5971°
True anomaly
95.10683°
Mean anomaly
94.9083°
Eccentric anomaly
95.00757°
Mean motion
3.42313 °/min
Orbital period
105.17 mins
BSTAR
0.00055442
Loading maneuver chart data...
Computing Atmospheric mass density...

Documentation

Showing up to 5 results
|